INTELSAT 25 (IS-25)

Last updated on June 27, 2019, 3:44 a.m. UTC

1 33153U 08034A   19177.77657331 -.00000216  00000-0  00000+0 0  9993
2 33153   0.0214 264.5011 0000310 182.8527  75.3129  1.00271870 40096
UTC
Height (km)
Latitude
Longitude
Inclination
Orbital Period
UTC large
Height (km)
Speed (km/s)
/
Latitude / Longitude
Inclination (degrees)
Orbital Period (minutes)
Azimuth
Elevation
Range (km)
Doppler Factor
iOS Compass Heading
iOS Angle

Next 30 passes for location: Hong Kong

Rise time Rise Azimuth (degrees) Set time Set Azimuth (degrees) Duration Max altitude (degrees)

No matching passes for this satellites